Terminal Aerodrome Forecast
Issued by NWS

Home | Current Version | Previous Version | Text Only | Print | Product List | Glossary On
Versions: 1 2 3 4 5 6 7 8 9 10 11 12 13 14 15 16 17 18 19 20 21
000
FTUS41 KGYX 010907 RRA
TAFRKD
TAF
KRKD 010907Z 0109/0206 03006KT P6SM OVC010
     FM011100 05003KT 6SM BR SCT007 OVC010
     FM011300 06009KT P6SM OVC015
      AMD LTD TO CLD VIS AND WIND=

USA.gov is the U.S. government's official web portal to all federal, state and local government web resources and services.